Twin Falls, ID

6:49 AM MDT on July 25, 2017 (GMT -0600)
Joslin Field-Magic Valley Regional

Weather History for KTWF - November, 2013

Change the Weather History Date:

Friday, November 15, 2013

  Actual Average Record
Temperature  
Mean Temperature 39 °F -  
Max Temperature 47 °F 49 °F 73 °F (2016)
Min Temperature 30 °F 27 °F 1 °F (1985)
Degree Days  
Heating Degree Days 26 27  
Month to date heating degree days 307 359  
Since 1 July heating degree days 918 978  
Cooling Degree Days 0 0  
Month to date cooling degree days 0 0  
Year to date cooling degree days 1138 680  
Moisture  
Dew Point 23 °F    
Average Humidity 53    
Maximum Humidity 72    
Minimum Humidity 34    
Precipitation  
Precipitation T in 0.04 in 0.03 in (2000)
Month to date precipitation 0.07 0.54  
Year to date precipitation 4.30 8.79  
Sea Level Pressure  
Sea Level Pressure 29.74 in    
Wind  
Wind Speed 14 mph (SW)    
Max Wind Speed 26 mph    
Max Gust Speed 32 mph    
Visibility 10 miles    
Events      
T = Trace of Precipitation, MM = Missing Value Source: NWS Daily Summary

Daily Weather History Graph

Daily Weather History Graph

Search for Another Location

Airport or City:

Trip Planner

Search our weather history database for the weather conditions in past years. The results will help you decide how hot, cold, wet, or windy it might be!

Date:

Astronomy

Nov. 15, 2013 Rise Set
Actual Time 7:29 AM MST 5:15 PM MST
Civil Twilight 6:59 AM MST 5:45 PM MST
Nautical Twilight 6:25 AM MST 6:19 PM MST
Astronomical Twilight 5:51 AM MST 6:52 PM MST
Moon 4:16 PM MST (11/15) 5:27 AM MST (11/15)
Length of Visible Light 10h 46m
Length of Day
9h 45m
Waxing Gibbous, 97% of the Moon is Illuminated
Nov 15
Waxing Gibbous
Nov 17
Full
Nov 25
Last Quarter
Dec 2
New
Dec 9
First Quarter

Hourly Weather History & Observations

Time (MST) Temp. Windchill Dew Point Humidity Pressure Visibility Wind Dir Wind Speed Gust Speed Precip Events Conditions
12:53 AM 39.9 °F 31.8 °F 28.9 °F 65% 29.78 in 10.0 mi West 15.0 mph - N/A   Mostly Cloudy
1:53 AM 39.0 °F 30.6 °F 28.9 °F 67% 29.78 in 10.0 mi WSW 15.0 mph - N/A   Mostly Cloudy
2:53 AM 37.0 °F 27.4 °F 27.0 °F 67% 29.78 in 10.0 mi WSW 17.3 mph - N/A   Clear
3:53 AM 35.1 °F 25.5 °F 25.0 °F 67% 29.79 in 10.0 mi SW 15.0 mph - N/A   Scattered Clouds
4:53 AM 34.0 °F 24.6 °F 25.0 °F 70% 29.78 in 10.0 mi SSW 13.8 mph 20.7 mph N/A   Clear
5:53 AM 32.0 °F 23.6 °F 23.0 °F 69% 29.80 in 10.0 mi SSW 10.4 mph - N/A   Clear
6:18 AM 32.0 °F 22.5 °F 23.0 °F 69% 29.82 in 10.0 mi SSW 12.7 mph - N/A   Mostly Cloudy
6:26 AM 32.0 °F 23.0 °F 23.0 °F 69% 29.82 in 10.0 mi SSW 11.5 mph - N/A   Mostly Cloudy
6:53 AM 30.0 °F 20.0 °F 23.0 °F 75% 29.82 in 10.0 mi SSW 12.7 mph - N/A   Mostly Cloudy
7:53 AM 32.0 °F 22.1 °F 23.0 °F 69% 29.82 in 10.0 mi SW 13.8 mph - N/A   Scattered Clouds
8:53 AM 35.1 °F 24.8 °F 24.1 °F 64% 29.82 in 10.0 mi SW 17.3 mph - N/A   Partly Cloudy
9:53 AM 37.0 °F 26.4 °F 24.1 °F 59% 29.82 in 10.0 mi WSW 20.7 mph 28.8 mph N/A   Partly Cloudy
10:53 AM 39.9 °F 30.0 °F 24.1 °F 53% 29.82 in 10.0 mi West 21.9 mph 31.1 mph N/A   Clear
11:53 AM 43.0 °F 35.7 °F 24.1 °F 47% 29.78 in 10.0 mi WSW 15.0 mph 25.3 mph N/A   Partly Cloudy
12:53 PM 45.0 °F 38.2 °F 23.0 °F 42% 29.75 in 10.0 mi West 15.0 mph - 0.00 in   Partly Cloudy
1:53 PM 46.0 °F 38.5 °F 21.0 °F 37% 29.71 in 10.0 mi WSW 19.6 mph 24.2 mph N/A   Clear
2:53 PM 46.0 °F 39.9 °F 19.9 °F 35% 29.68 in 10.0 mi WSW 13.8 mph 23.0 mph N/A   Clear
3:53 PM 45.0 °F 37.9 °F 19.9 °F 37% 29.68 in 10.0 mi WSW 16.1 mph - N/A   Clear
4:53 PM 42.1 °F 36.1 °F 21.9 °F 45% 29.69 in 10.0 mi West 10.4 mph - N/A   Clear
5:53 PM 36.0 °F 29.6 °F 21.0 °F 55% 29.70 in 10.0 mi SW 8.1 mph - N/A   Clear
6:53 PM 37.0 °F 31.0 °F 21.0 °F 52% 29.69 in 10.0 mi SSW 8.1 mph - N/A   Clear
7:53 PM 35.1 °F 27.9 °F 19.9 °F 54% 29.68 in 10.0 mi South 9.2 mph - N/A   Clear
8:53 PM 37.9 °F 32.1 °F 19.9 °F 48% 29.65 in 10.0 mi SSW 8.1 mph - N/A   Overcast
9:53 PM 36.0 °F 29.0 °F 19.0 °F 50% 29.63 in 10.0 mi SSW 9.2 mph - N/A   Scattered Clouds
10:53 PM 37.0 °F 29.3 °F 19.0 °F 48% 29.58 in 10.0 mi South 11.5 mph - N/A   Mostly Cloudy
11:53 PM 39.9 °F 32.5 °F 19.9 °F 45% 29.55 in 10.0 mi South 12.7 mph - N/A   Overcast